GW4489 Weather Reports


Display with metric or nautical units.
time (UTC)temp
F
wind
direction
speed
MPH
gust
MPH
rain 1hr
in
rain 24hr
in
rain mn
in
humidity
%
barometer
mb
20260905004518 83 286 0.0 0.0 0.00 0.00 0.00 79 1016.0
20260905004010 83 286 0.0 0.0 0.00 0.00 0.00 80 1016.0
20260905003510 83 286 0.0 0.0 0.00 0.00 0.00 79 1016.0
20260905003024 83 286 0.0 2.0 0.00 0.00 0.00 78 1016.0
20260905002510 84 286 0.0 3.0 0.00 0.00 0.00 78 1016.0
20260905002013 84 286 1.0 3.0 0.00 0.00 0.00 78 1015.9
20260905001531 84 286 1.0 3.0 0.00 0.00 0.00 77 1015.8
20260905001014 84 285 0.0 2.0 0.00 0.00 0.00 76 1015.8
20260905000514 84 285 0.0 2.0 0.00 0.00 0.00 76 1015.7
20260905000034 84 285 1.0 3.0 0.00 0.00 0.00 76 1015.7
20260904235513 85 285 0.0 3.0 0.00 0.00 0.00 76 1015.7
20260904235005 85 285 0.0 2.0 0.00 0.00 0.00 76 1015.8
20260904234515 85 286 0.0 2.0 0.00 0.00 0.00 75 1015.8
20260904234007 85 286 0.0 3.0 0.00 0.00 0.00 75 1015.8
20260904233505 86 286 1.0 3.0 0.00 0.00 0.00 75 1015.7
20260904233019 86 285 2.0 3.0 0.00 0.00 0.00 73 1015.7
20260904232510 87 225 2.0 3.0 0.00 0.00 0.00 73 1015.6
20260904232016 88 225 1.0 2.0 0.00 0.00 0.00 69 1015.6
20260904231526 88 225 0.0 1.0 0.00 0.00 0.00 67 1015.5
20260904231012 89 225 0.0 0.0 0.00 0.00 0.00 66 1015.6
20260904230514 89 225 0.0 0.0 0.00 0.00 0.00 66 1015.6
20260904230030 90 225 0.0 1.0 0.00 0.00 0.00 64 1015.4
20260904225520 90 225 0.0 1.0 0.00 0.00 0.00 65 1015.3
20260904225013 91 213 0.0 0.0 0.00 0.00 0.00 66 1015.3
20260904224539 91 172 0.0 2.0 0.00 0.00 0.00 64 1015.3
20260904224007 91 172 0.0 2.0 0.00 0.00 0.00 64 1015.2
20260904223509 91 175 0.0 2.0 0.00 0.00 0.00 62 1015.2
20260904223017 91 173 0.0 2.0 0.00 0.00 0.00 62 1015.1
20260904222510 91 152 0.0 2.0 0.00 0.00 0.00 61 1015.2
20260904222009 92 150 0.0 3.0 0.00 0.00 0.00 59 1015.2
20260904221527 92 143 0.0 6.0 0.00 0.00 0.00 58 1015.2
20260904221013 92 146 2.0 6.0 0.00 0.00 0.00 57 1015.2
20260904220513 92 133 2.0 7.0 0.00 0.00 0.00 57 1015.2
20260904220005 93 121 3.0 8.0 0.00 0.00 0.00 56 1015.1
20260904215503 93 157 4.0 8.0 0.00 0.00 0.00 58 1015.1
20260904215002 93 102 4.0 8.0 0.00 0.00 0.00 56 1015.1
20260904214513 93 107 4.0 8.0 0.00 0.00 0.00 55 1015.0
20260904214003 93 122 4.0 7.0 0.00 0.00 0.00 57 1015.1
20260904213505 92 109 4.0 8.0 0.00 0.00 0.00 58 1015.2
20260904213013 92 125 4.0 10.0 0.00 0.00 0.00 57 1015.2
20260904212509 92 148 4.0 10.0 0.00 0.00 0.00 57 1015.3
20260904212007 93 115 5.0 11.0 0.00 0.00 0.00 56 1015.3
20260904211522 94 105 7.0 12.0 0.00 0.00 0.00 53 1015.2
20260904211014 93 102 8.0 12.0 0.00 0.00 0.00 55 1015.4
20260904210503 92 107 7.0 11.0 0.00 0.00 0.00 57 1015.4
20260904210003 92 119 8.0 12.0 0.00 0.00 0.00 56 1015.5
20260904205504 92 105 8.0 14.0 0.00 0.00 0.00 55 1015.5
20260904205002 93 93 8.0 14.0 0.00 0.00 0.00 55 1015.5
20260904204504 94 115 9.0 12.0 0.00 0.00 0.00 54 1015.6
20260904204002 95 122 7.0 12.0 0.00 0.00 0.00 51 1015.8
20260904203502 98 103 5.0 10.0 0.00 0.00 0.00 48 1015.7
20260904203010 98 360 6.0 10.0 0.00 0.00 0.00 47 1015.6
20260904202509 98 335 5.0 9.0 0.00 0.00 0.00 45 1015.7
20260904202005 99 333 3.0 8.0 0.00 0.00 0.00 47 1015.6
20260904201515 99 266 1.0 8.0 0.00 0.00 0.00 44 1015.5
20260904201005 99 266 2.0 8.0 0.00 0.00 0.00 43 1015.6
20260904200510 98 33 2.0 7.0 0.00 0.00 0.00 44 1015.6
20260904200023 98 9 3.0 7.0 0.00 0.00 0.00 44 1015.7
20260904195512 97 306 1.0 12.0 0.00 0.00 0.00 48 1015.8
20260904195011 97 279 3.0 12.0 0.00 0.00 0.00 45 1015.9
20260904194504 98 115 2.0 6.0 0.00 0.00 0.00 46 1016.1
20260904194005 98 347 1.0 7.0 0.00 0.00 0.00 47 1016.2
20260904193503 97 333 3.0 8.0 0.00 0.00 0.00 45 1016.3
20260904193003 98 5 4.0 8.0 0.00 0.00 0.00 46 1016.3
20260904192503 97 305 2.0 10.0 0.00 0.00 0.00 47 1016.4
20260904192006 97 281 4.0 10.0 0.00 0.00 0.00 47 1016.6
20260904191514 97 344 3.0 9.0 0.00 0.00 0.00 49 1016.6
20260904191007 95 315 2.0 8.0 0.00 0.00 0.00 50 1016.7
20260904190506 95 282 3.0 9.0 0.00 0.00 0.00 53 1016.8
20260904190015 95 288 3.0 11.0 0.00 0.00 0.00 51 1016.8
20260904185512 96 355 3.0 11.0 0.00 0.00 0.00 49 1016.9
20260904185011 97 15 6.0 11.0 0.00 0.00 0.00 48 1017.0
20260904184528 97 324 3.0 7.0 0.00 0.00 0.00 49 1017.0
20260904184011 96 202 2.0 7.0 0.00 0.00 0.00 48 1017.1
20260904183512 95 209 4.0 8.0 0.00 0.00 0.00 49 1017.2
20260904183029 96 191 4.0 8.0 0.00 0.00 0.00 50 1017.2
20260904182503 95 239 3.0 8.0 0.00 0.00 0.00 52 1017.3
20260904182008 96 252 4.0 9.0 0.00 0.00 0.00 48 1017.4
20260904181509 96 287 3.0 9.0 0.00 0.00 0.00 48 1017.5
20260904181003 96 27 5.0 9.0 0.00 0.00 0.00 48 1017.6
20260904180504 95 225 2.0 8.0 0.00 0.00 0.00 51 1017.6
20260904180014 95 311 2.0 8.0 0.00 0.00 0.00 52 1017.7
20260904175514 95 244 3.0 11.0 0.00 0.00 0.00 51 1017.8
20260904175010 95 226 2.0 11.0 0.00 0.00 0.00 53 1017.9
20260904174519 96 291 3.0 7.0 0.00 0.00 0.00 50 1017.9
20260904174008 95 273 2.0 7.0 0.00 0.00 0.00 50 1017.9
20260904173509 94 191 2.0 8.0 0.00 0.00 0.00 55 1018.0
20260904173037 93 5 2.0 8.0 0.00 0.00 0.00 56 1018.1
20260904172514 92 329 3.0 14.0 0.00 0.00 0.00 54 1018.2
20260904172012 93 333 6.0 14.0 0.00 0.00 0.00 55 1018.2
20260904171528 94 98 2.0 10.0 0.00 0.00 0.00 51 1018.2
20260904171015 95 343 3.0 10.0 0.00 0.00 0.00 52 1018.2
20260904170504 96 302 4.0 10.0 0.00 0.00 0.00 55 1018.3
20260904170015 95 19 2.0 7.0 0.00 0.00 0.00 54 1018.3
20260904165504 95 219 1.0 6.0 0.00 0.00 0.00 52 1018.4
20260904165007 94 323 2.0 6.0 0.00 0.00 0.00 52 1018.4
20260904164518 94 162 1.0 5.0 0.00 0.00 0.00 53 1018.5
20260904164007 94 340 2.0 7.0 0.00 0.00 0.00 53 1018.6
20260904163507 94 258 3.0 7.0 0.00 0.00 0.00 54 1018.6
20260904163019 94 342 1.0 6.0 0.00 0.00 0.00 52 1018.6
20260904162514 94 54 2.0 6.0 0.00 0.00 0.00 50 1018.6
20260904162012 94 270 1.0 8.0 0.00 0.00 0.00 54 1018.6
20260904161528 94 304 2.0 8.0 0.00 0.00 0.00 51 1018.6
20260904161014 94 338 3.0 5.0 0.00 0.00 0.00 54 1018.6
20260904160516 94 307 2.0 5.0 0.00 0.00 0.00 55 1018.6
20260904160032 94 308 2.0 5.0 0.00 0.00 0.00 56 1018.6
20260904155517 93 299 2.0 7.0 0.00 0.00 0.00 61 1018.6
20260904155018 92 196 3.0 7.0 0.00 0.00 0.00 59 1018.6
20260904154516 93 244 2.0 4.0 0.00 0.00 0.00 59 1018.7
20260904154007 92 311 2.0 4.0 0.00 0.00 0.00 58 1018.7
20260904153509 92 110 2.0 6.0 0.00 0.00 0.00 60 1018.7
20260904153020 91 202 4.0 6.0 0.00 0.00 0.00 60 1018.7
20260904152513 92 219 1.0 4.0 0.00 0.00 0.00 61 1018.7
20260904152009 93 219 0.0 4.0 0.00 0.00 0.00 60 1018.7
20260904151526 91 219 0.0 5.0 0.00 0.00 0.00 61 1018.6
20260904151014 91 217 2.0 5.0 0.00 0.00 0.00 60 1018.7
20260904150517 90 217 1.0 5.0 0.00 0.00 0.00 62 1018.7
20260904150035 90 212 3.0 5.0 0.00 0.00 0.00 64 1018.7
20260904145516 90 192 0.0 0.0 0.00 0.00 0.00 67 1018.7
20260904145013 90 196 0.0 0.0 0.00 0.00 0.00 66 1018.7
20260904144534 90 196 0.0 0.0 0.00 0.00 0.00 64 1018.7
20260904144019 90 196 0.0 0.0 0.00 0.00 0.00 67 1018.7
20260904143517 89 261 0.0 0.0 0.00 0.00 0.00 66 1018.6
20260904143015 88 263 0.0 0.0 0.00 0.00 0.00 66 1018.6
20260904142515 88 155 0.0 0.0 0.00 0.00 0.00 68 1018.5
20260904142008 87 155 0.0 0.0 0.00 0.00 0.00 70 1018.5
20260904141533 87 157 0.0 0.0 0.00 0.00 0.00 71 1018.5
20260904141011 87 157 0.0 0.0 0.00 0.00 0.00 71 1018.5
20260904140513 86 157 0.0 0.0 0.00 0.00 0.00 71 1018.6
20260904140046 86 157 0.0 0.0 0.00 0.00 0.00 72 1018.6
20260904135515 85 157 0.0 0.0 0.00 0.00 0.00 74 1018.6
20260904135014 84 157 0.0 0.0 0.00 0.00 0.00 78 1018.6
20260904134533 82 157 0.0 0.0 0.00 0.00 0.00 83 1018.5
20260904134015 80 157 0.0 0.0 0.00 0.00 0.00 86 1018.6
20260904133514 79 157 0.0 0.0 0.00 0.00 0.00 88 1018.5
20260904133033 79 157 0.0 0.0 0.00 0.00 0.00 90 1018.5
20260904132519 78 157 0.0 0.0 0.00 0.00 0.00 91 1018.5
20260904132024 77 157 0.0 0.0 0.00 0.00 0.00 91 1018.6
20260904131530 76 157 0.0 0.0 0.00 0.00 0.00 93 1018.6
20260904131012 75 157 0.0 0.0 0.00 0.00 0.00 94 1018.5
20260904130515 75 157 0.0 0.0 0.00 0.00 0.00 95 1018.5
20260904130003 74 157 0.0 0.0 0.00 0.00 0.00 96 1018.5
20260904125503 74 157 0.0 0.0 0.00 0.00 0.00 96 1018.5
20260904125005 73 57 0.0 0.0 0.00 0.00 0.00 96 1018.4
20260904124504 73 57 0.0 0.0 0.00 0.00 0.00 96 1018.4
20260904124003 72 57 0.0 0.0 0.00 0.00 0.00 96 1018.4
20260904123503 72 57 0.0 0.0 0.00 0.00 0.00 96 1018.4
20260904123007 71 58 0.0 0.0 0.00 0.00 0.00 95 1018.4
20260904122505 71 58 0.0 0.0 0.00 0.00 0.00 95 1018.4
20260904122008 71 57 0.0 0.0 0.00 0.00 0.00 95 1018.4
20260904121514 71 57 0.0 0.0 0.00 0.00 0.00 95 1018.4
20260904121009 70 57 0.0 0.0 0.00 0.00 0.00 95 1018.4
20260904120502 70 58 0.0 0.0 0.00 0.00 0.00 94 1018.4
20260904120010 70 57 0.0 1.0 0.00 0.00 0.00 94 1018.4
20260904115502 70 58 0.0 1.0 0.00 0.00 0.00 93 1018.4
20260904115003 70 45 0.0 0.0 0.00 0.00 0.00 93 1018.3
20260904114511 69 149 0.0 0.0 0.00 0.00 0.00 93 1018.2
20260904114003 69 156 0.0 0.0 0.00 0.00 0.00 93 1018.2
20260904113503 69 115 0.0 0.0 0.00 0.00 0.00 93 1018.1
20260904113014 69 115 0.0 0.0 0.00 0.00 0.00 93 1018.1
20260904112502 70 115 0.0 0.0 0.00 0.00 0.00 93 1018.0
20260904112005 70 115 0.0 0.0 0.00 0.00 0.00 93 1017.9
20260904111513 70 115 0.0 0.0 0.00 0.00 0.00 93 1017.9
20260904111005 69 115 0.0 0.0 0.00 0.00 0.00 93 1017.8
20260904110507 70 115 0.0 0.0 0.00 0.00 0.00 93 1017.7
20260904110020 70 115 0.0 0.0 0.00 0.00 0.00 93 1017.7
20260904105510 70 115 0.0 0.0 0.00 0.00 0.00 93 1017.7
20260904105010 70 115 0.0 0.0 0.00 0.00 0.00 93 1017.6
20260904104503 70 115 0.0 0.0 0.00 0.00 0.00 93 1017.5
20260904104002 70 115 0.0 0.0 0.00 0.00 0.00 93 1017.5
20260904103502 70 115 0.0 0.0 0.00 0.00 0.00 92 1017.5
20260904103003 70 115 0.0 0.0 0.00 0.00 0.00 92 1017.5
20260904102504 70 115 0.0 0.0 0.00 0.00 0.00 92 1017.4
20260904102003 70 115 0.0 0.0 0.00 0.00 0.00 92 1017.4
20260904101510 70 115 0.0 0.0 0.00 0.00 0.00 92 1017.5
20260904101003 70 115 0.0 0.0 0.00 0.00 0.00 92 1017.4
20260904100506 70 115 0.0 0.0 0.00 0.00 0.00 92 1017.3
20260904100014 70 115 0.0 0.0 0.00 0.00 0.00 92 1017.2
20260904095506 70 115 0.0 0.0 0.00 0.00 0.00 92 1017.2
20260904095010 70 115 0.0 0.0 0.00 0.00 0.00 92 1017.2
20260904094535 70 115 0.0 0.0 0.00 0.00 0.00 92 1017.2
20260904094011 70 115 0.0 0.0 0.00 0.00 0.00 92 1017.1
20260904093514 70 115 0.0 0.0 0.00 0.00 0.00 91 1017.1
20260904093003 70 115 0.0 0.0 0.00 0.00 0.00 91 1017.0
20260904092502 70 115 0.0 0.0 0.00 0.00 0.00 91 1017.1
20260904092006 70 115 0.0 0.0 0.00 0.00 0.00 91 1017.1
20260904091508 70 115 0.0 0.0 0.00 0.00 0.00 91 1017.2
20260904091005 70 115 0.0 0.0 0.00 0.00 0.00 91 1017.1
20260904090503 71 115 0.0 0.0 0.00 0.00 0.00 91 1017.1
20260904090015 71 115 0.0 0.0 0.00 0.00 0.00 91 1017.1
20260904085508 71 115 0.0 0.0 0.00 0.00 0.00 91 1017.0
20260904085006 71 115 0.0 0.0 0.00 0.00 0.00 91 1017.1
20260904084520 71 115 0.0 0.0 0.00 0.00 0.00 91 1017.1
20260904084009 71 115 0.0 0.0 0.00 0.00 0.00 91 1017.1
20260904083511 71 115 0.0 0.0 0.00 0.00 0.00 91 1017.0
20260904083026 71 115 0.0 0.0 0.00 0.00 0.00 90 1017.0
20260904082511 71 115 0.0 0.0 0.00 0.00 0.00 90 1017.0
20260904082012 71 115 0.0 0.0 0.00 0.00 0.00 90 1016.9
20260904081528 71 115 0.0 0.0 0.00 0.00 0.00 90 1016.8
20260904081003 71 115 0.0 0.0 0.00 0.00 0.00 90 1016.9
20260904080503 71 115 0.0 0.0 0.00 0.00 0.00 90 1016.8
20260904080012 71 115 0.0 0.0 0.00 0.00 0.00 90 1016.8
20260904075507 71 115 0.0 0.0 0.00 0.00 0.00 90 1016.8
20260904075003 71 115 0.0 0.0 0.00 0.00 0.00 90 1016.8
20260904074517 71 115 0.0 0.0 0.00 0.00 0.00 90 1016.8
20260904074007 71 115 0.0 0.0 0.00 0.00 0.00 89 1016.8
20260904073511 72 115 0.0 0.0 0.00 0.00 0.00 89 1016.8
20260904073021 72 115 0.0 0.0 0.00 0.00 0.00 89 1016.8
20260904072509 72 115 0.0 0.0 0.00 0.00 0.00 89 1016.8
20260904072012 72 115 0.0 0.0 0.00 0.00 0.00 89 1016.9
20260904071527 72 115 0.0 0.0 0.00 0.00 0.00 89 1016.8
20260904071015 72 115 0.0 0.0 0.00 0.00 0.00 89 1016.8
20260904070517 72 115 0.0 0.0 0.00 0.00 0.00 89 1016.8
20260904070029 72 115 0.0 0.0 0.00 0.00 0.00 89 1016.9
20260904065520 72 115 0.0 0.0 0.00 0.00 0.00 88 1017.0
20260904065005 72 115 0.0 0.0 0.00 0.00 0.00 88 1017.0
20260904064520 73 115 0.0 0.0 0.00 0.00 0.00 88 1017.0
20260904064007 73 115 0.0 0.0 0.00 0.00 0.00 89 1017.0
20260904063507 73 115 0.0 0.0 0.00 0.00 0.00 88 1017.0
20260904063025 73 115 0.0 0.0 0.00 0.00 0.00 88 1017.1
20260904062508 73 115 0.0 0.0 0.00 0.00 0.00 88 1017.2
20260904062010 73 115 0.0 0.0 0.00 0.00 0.00 88 1017.1
20260904061536 73 115 0.0 0.0 0.00 0.00 0.00 88 1017.2
20260904061003 73 115 0.0 0.0 0.00 0.00 0.00 88 1017.3
20260904060504 73 115 0.0 0.0 0.00 0.00 0.00 87 1017.4
20260904060004 73 115 0.0 0.0 0.00 0.00 0.00 87 1017.4
20260904055504 73 115 0.0 0.0 0.00 0.00 0.00 87 1017.3
20260904055002 73 115 0.0 0.0 0.00 0.00 0.00 87 1017.4
20260904054510 74 115 0.0 0.0 0.00 0.00 0.00 87 1017.5
20260904054003 74 115 0.0 0.0 0.00 0.00 0.00 87 1017.5
20260904053503 74 115 0.0 0.0 0.00 0.00 0.00 86 1017.5
20260904053014 74 115 0.0 0.0 0.00 0.00 0.00 86 1017.5
20260904052508 74 115 0.0 0.0 0.00 0.00 0.00 86 1017.6
20260904052008 74 115 0.0 0.0 0.00 0.00 0.00 86 1017.6
20260904051504 74 115 0.0 0.0 0.00 0.00 0.00 86 1017.7
20260904051002 74 115 0.0 0.0 0.00 0.00 0.00 86 1017.7
20260904050502 74 115 0.0 0.0 0.00 0.00 0.00 86 1017.6
20260904050004 75 115 0.0 0.0 0.00 0.00 0.00 86 1017.6
20260904045503 75 115 0.0 0.0 0.00 0.00 0.00 86 1017.6
20260904045004 75 115 0.0 0.0 0.00 0.00 0.00 86 1017.7
20260904044508 75 115 0.0 0.0 0.00 0.00 0.00 85 1017.6
20260904044002 75 115 0.0 0.0 0.00 0.00 0.00 85 1017.7
20260904043503 75 115 0.0 0.0 0.00 0.00 0.00 86 1017.8
20260904043015 75 115 0.0 0.0 0.00 0.00 0.00 85 1017.7
20260904042509 75 115 0.0 0.0 0.00 0.00 0.00 85 1017.7
20260904042007 75 115 0.0 0.0 0.00 0.00 0.00 85 1017.8
20260904041521 76 115 0.0 1.0 0.00 0.00 0.00 85 1017.7
20260904041007 76 115 0.0 1.0 0.00 0.00 0.00 85 1017.8
20260904040509 76 115 0.0 0.0 0.00 0.00 0.00 85 1017.9
20260904040037 76 115 0.0 0.0 0.00 0.00 0.00 85 1017.9
20260904035503 76 115 0.0 2.0 0.00 0.00 0.00 84 1017.9
20260904035003 76 115 0.0 2.0 0.00 0.00 0.00 84 1017.8
20260904034503 76 115 0.0 0.0 0.00 0.00 0.00 84 1017.9
20260904034003 76 115 0.0 0.0 0.00 0.00 0.00 84 1017.9
20260904033503 77 115 0.0 0.0 0.00 0.00 0.00 84 1017.9
20260904033009 77 115 0.0 0.0 0.00 0.00 0.00 83 1017.9
20260904032503 77 115 0.0 2.0 0.00 0.00 0.00 83 1017.9
20260904032004 77 115 0.0 2.0 0.00 0.00 0.00 83 1017.9
20260904031520 77 115 0.0 2.0 0.00 0.00 0.00 83 1017.9
20260904031007 77 115 0.0 2.0 0.00 0.00 0.00 83 1017.9
20260904030508 77 115 0.0 1.0 0.00 0.00 0.00 83 1018.0
20260904030020 77 115 0.0 1.0 0.00 0.00 0.00 83 1018.0
20260904025508 78 115 0.0 2.0 0.00 0.00 0.00 83 1018.0
20260904025012 78 115 0.0 2.0 0.00 0.00 0.00 83 1018.0
20260904024526 78 115 0.0 0.0 0.00 0.00 0.00 83 1018.1
20260904024003 78 115 0.0 2.0 0.00 0.00 0.00 83 1018.0
20260904023504 78 115 0.0 3.0 0.00 0.00 0.00 83 1017.9
20260904023012 78 115 1.0 3.0 0.00 0.00 0.00 83 1017.8
20260904022505 78 115 0.0 1.0 0.00 0.00 0.00 83 1017.8
20260904022003 78 115 0.0 1.0 0.00 0.00 0.00 82 1017.9
20260904021525 78 115 0.0 2.0 0.00 0.00 0.00 82 1017.9
20260904021007 78 115 1.0 2.0 0.00 0.00 0.00 82 1017.9
20260904020507 79 115 0.0 2.0 0.00 0.00 0.00 82 1017.9
20260904020016 79 115 0.0 3.0 0.00 0.00 0.00 82 1017.8
20260904015510 79 115 1.0 3.0 0.00 0.00 0.00 81 1017.8
20260904015011 79 115 2.0 3.0 0.00 0.00 0.00 81 1017.7
20260904014523 80 115 2.0 3.0 0.00 0.00 0.00 80 1017.6
20260904014011 80 115 2.0 3.0 0.00 0.00 0.00 79 1017.6
20260904013511 81 115 2.0 3.0 0.00 0.00 0.00 78 1017.6
20260904013028 81 115 0.0 2.0 0.00 0.00 0.00 78 1017.5
20260904012513 81 115 0.0 2.0 0.00 0.00 0.00 78 1017.6
20260904012003 81 115 0.0 3.0 0.00 0.00 0.00 78 1017.5
20260904011509 81 115 2.0 3.0 0.00 0.00 0.00 78 1017.4
20260904011005 82 115 0.0 1.0 0.00 0.00 0.00 77 1017.3
20260904010503 82 115 0.0 2.0 0.00 0.00 0.00 77 1017.2
20260904010014 82 115 0.0 2.0 0.00 0.00 0.00 76 1017.1
20260904005505 83 115 0.0 0.0 0.00 0.00 0.00 76 1017.1
20260904005011 83 115 0.0 0.0 0.00 0.00 0.00 75 1017.0